Flag for U.S.A. Weather past 2 weeks in Glendale, Arizona, U.S.A.

Now
94 °F

Sunny.


Feels Like: 94 °F
Forecast: 85 / 105 °F
Wind: 7 mph from South

Location: Phoenix-Deer Valley Municipal Airport

Current Time: Jul 31, 2015 at 9:11:57 AM

Latest Report: Jul 31, 2015 at 8:53 AM


Visibility: 10 mi

Pressure: 29.90 "Hg

Humidity: 32%

Dew point: 60 °F

Location of GlendaleLocation

Historic Weather in Glendale — Graph

°F

Glendale temperature yesterday

Maximum temperature yesterday: 101 °F (at 4:53 PM)
Minimum temperature yesterday: 83 °F (at 3:53 AM)
Average temperature yesterday: 93 °F

Past Weeks' High & Low Weather Summary

 TemperatureHumidityPressure
High107 °F (Jul 26, 3:53 PM)85% (Jul 19, 1:53 AM)30.01 "Hg (Jul 19, 1:53 AM)
Low75 °F (Jul 18, 10:53 PM)7% (Jul 25, 3:53 PM)29.64 "Hg (Jul 21, 6:53 PM)
Average91 °F30%29.81 "Hg
* Reported Jul 16 7:53 AM — Jul 31 7:53 AM, Glendale, Weather by CustomWeather, © 2015

Note: Actual official high and low records may vary slightly from our data, if they occured in-between our weather recording intervals... More about our weather records

Advertising

Glendale weather history for previous 24 hours

 ConditionsComfort  
Time TempWeatherWind HumidityBarometerVisibility
7:53 AM
Fri, Jul 31
92 °FSunny.No wind35%29.90 "Hg10 mi
6:53 AM90 °FSunny.No wind37%29.89 "Hg10 mi
5:53 AM86 °FSunny.5 mph39%29.87 "Hg10 mi
4:53 AM85 °FClear.No wind43%29.86 "Hg10 mi
3:53 AM86 °FClear.No wind42%29.85 "Hg10 mi
2:53 AM89 °FClear.No wind34%29.85 "Hg10 mi
1:53 AM90 °FClear.6 mph33%29.84 "Hg10 mi
12:53 AM91 °FClear.No wind33%29.85 "Hg10 mi
11:53 PM
Thu, Jul 30
93 °FClear.No wind31%29.85 "Hg10 mi
10:53 PM94 °FClear.No wind30%29.86 "Hg10 mi
9:53 PM95 °FClear.6 mph29%29.86 "Hg10 mi
8:53 PM97 °FClear.12 mph27%29.84 "Hg10 mi
7:53 PM99 °FClear.No wind24%29.81 "Hg10 mi
6:53 PM100 °FSunny.No wind23%29.80 "Hg10 mi
5:53 PM101 °FSunny.3 mph22%29.80 "Hg10 mi
4:53 PM101 °FSunny.5 mph22%29.80 "Hg10 mi
3:53 PM100 °FSunny.No wind24%29.83 "Hg10 mi
2:53 PM100 °FSunny.6 mph24%29.85 "Hg10 mi
1:53 PM98 °FSunny.7 mph26%29.88 "Hg10 mi
12:53 PM98 °FSunny.7 mph26%29.90 "Hg10 mi
11:53 AM98 °FSunny.8 mph26%29.93 "Hg10 mi
10:53 AM94 °FSunny.No wind31%29.95 "Hg10 mi
9:53 AM92 °FSunny.8 mph33%29.96 "Hg10 mi
Weather by CustomWeather, © 2015

See weather overviewHow to use our weather pages